+ View the NASA Portal
+ Center for Near-Earth Object Studies
IMPORTANT:
The SSD Announcement email list is now available. Major changes are coming in the near future, including possible hostname and/or URL changes. To be notified of such changes, subscribe to this email list.
Please visit
this page
for more details.
Don't show this message again
JPL Small-Body Database Browser
Search:
[
help
]
437506 (2013 YH79)
Classification:
Main-belt Asteroid
SPK-ID:
2437506
[
Ephemeris
|
Orbit Diagram
|
Orbital Elements
|
Mission Design
|
Physical Parameters
|
Discovery Circumstances
]
[ show orbit diagram ]
Orbital Elements at Epoch 2458600.5 (2019-Apr-27.0) TDB
Reference:
JPL 10
(heliocentric ecliptic J2000)
Element
Value
Uncertainty (1-sigma)
Units
e
.07816641529781737
8.9281e-08
a
2.562129462593469
3.8887e-08
au
q
2.361856986973614
2.1761e-07
au
i
4.427879646982785
7.8339e-06
deg
node
324.6903628735368
0.00013241
deg
peri
173.139439794695
0.00015205
deg
M
80.00033065819164
7.8495e-05
deg
t
p
2458267.618765053970
(2018-May-29.11876505)
0.00032277
TDB
period
1497.959365850447
4.10
3.4103e-05
9.337e-08
d
yr
n
.240326946249049
5.4714e-09
deg/d
Q
2.762401938213324
4.1927e-08
au
Orbit Determination Parameters
# obs. used (total)
74
data-arc span
6295 days (17.23 yr)
first obs. used
2002-02-12
last obs. used
2019-05-09
planetary ephem.
DE431
SB-pert. ephem.
SB431-N16
condition code
0
norm. resid. RMS
.52146
source
ORB
producer
Otto Matic
solution date
2019-May-30 10:10:00
Additional Information
Earth MOID
= 1.37572 au
Jupiter MOID
= 2.25158 au
T_jup
= 3.426
[ show covariance matrix ]
[
Ephemeris
|
Orbit Diagram
|
Orbital Elements
|
Mission Design
|
Physical Parameters
|
Discovery Circumstances
]
Physical Parameter Table
Parameter
Symbol
Value
Units
Sigma
Reference
Notes
absolute magnitude
H
17.8
n/a
MPO386679
437506 (2013 YH79)
Discovered 2006-Jan-25 by Spacewatch at Kitt Peak
Reference:
Last Updated:
2015-06-04
Alternate Designations
2013 YH79
= 2006 BW113 = 2010 CJ70
[
Ephemeris
|
Orbit Diagram
|
Orbital Elements
|
Mission Design
|
Physical Parameters
|
Discovery Circumstances
]
2019-Dec-15 21:24 UT
(server date/time)
Site Manager:
Ryan S. Park
Webmaster
:
Alan B. Chamberlin